Weather in Rahim Yar Khan

Pakistan     28°25′06″N   70°18′38″E
temp.,
°C
wind,
m/s
gust,
m/s
humid.,
%
clouds,
%
prec.,
mm/h
press.,
hPa
HPBL,
m
17 june, thu
thu1723:00+31nnw71153100 3.7 996372
02:00+34e494265 0.6 996549
05:00+31w355254 1.1 997215
08:00+33se444213 0.3 9991049
11:00+34nne5441100 1.0 999729
14:00+38ese1229100 0.0 9972758
17:00+33s884469 0.1 997621
20:00+35s2340100 0.0 998333
18 june, fri
fri1823:00+34n24419 0.0 999380
02:00+31e45480 0.4 999462
05:00+31ese23522 0.4 999221
08:00+33nnw21455 0.0 1000483
11:00+37ene23310 0.0 10002158
14:00+40ese442290 0.0 9973644
17:00+39se742579 0.1 9962480
20:00+36sse45310 0.0 998843
19 june, sat
sat1923:00+35sse57350 0.0 999370
02:00+33sw47470 0.0 998387
05:00+31sw47540 0.0 998339
08:00+34sw44440 0.0 999585
11:00+39ssw43280 0.0 9991742
14:00+42s53220 0.0 9963003
17:00+41s64220 0.0 9953223
20:00+38sse78290 0.0 9961361
20 june, sun
sun2023:00+36s810350 0.0 997787
02:00+32ssw712550 0.0 998653
05:00+31ssw510594 0.0 998461
08:00+33ssw66485 0.0 1000760
11:00+38ssw55350 0.0 9991525
14:00+41s64260 0.0 9972573
17:00+40s75260 0.0 9962774
20:00+38s67310 0.0 9981891
21 june, mon
mon2123:00+37s47330 0.0 999729
02:00+30ene68521 1.4 1001395
05:00+31se36505 1.6 1001438
08:00+33ssw444767 0.0 1002747
11:00+36ssw32375 0.0 10022014
14:00+40sse32280 0.0 10002848
17:00+41sse642614 0.0 9993141
20:00+37sse673111 0.1 1000814